Terminal Aerodrome Forecast
Issued by NWS

Home | Current Version | Previous Version | Text Only | Print | Product List | Glossary On
Versions: 1 2 3 4 5 6 7 8 9 10 11 12 13 14
000
FTAK31 PAJN 210700 AAA
TAFAGY
TAF AMD
PAGY 210703Z 2107/2206 02008KT P6SM VCSH OVC050
     FM210900 03006KT P6SM VCSH OVC040
     FM211400 VRB06KT P6SM -SHSN OVC040
     FM220100 VRB05KT P6SM VCSH OVC040
      AMD LTD TO CLD VIS AND WIND=

USA.gov is the U.S. government's official web portal to all federal, state and local government web resources and services.